This demonstration page uses our WeatherBlox Daily Observations layout. Learn more.

Left ArrowRight Arrow

39.92423, -83.80882

Hourly Observations for March 7, 2022

Temp ( °F °C ) Dew Point ( °F °C ) Humidity (%) Winds ( mph kmh ) Pressure ( in mb ) Visibility ( mi km ) Precip ( " mm )
12:56 am 00:56 Cloudy with Rain 48 9 N/A N/A E 10 17 29.88 1012 6 10 0.00 0.00
1:06 am 01:06 Cloudy with Rain 48 9 N/A N/A ENE 9 15 29.89 1012 6 10 0.00 0.00
1:41 am 01:41 Cloudy with Heavy Rain 46 8 N/A N/A E 18 30 29.82 1010 3 5 0.00 0.00
1:56 am 01:56 Cloudy with Light Rain 46 8 N/A N/A E 15 24 29.79 1009 9 14 0.00 0.00
2:06 am 02:06 Cloudy with Light Rain 48 9 N/A N/A E 15 24 29.82 1010 10 16 0.00 0.00
2:33 am 02:33 Cloudy with Light Rain 46 8 N/A N/A NE 13 20 29.79 1009 8 13 0.00 0.00
2:56 am 02:56 Cloudy with Light Rain 46 8 N/A N/A E 13 20 29.73 1007 6 10 0.00 0.00
3:43 am 03:43 Cloudy with Light Rain 46 8 N/A N/A E 12 19 29.70 1006 7 11 0.00 0.00
3:51 am 03:51 Cloudy with Nearby Thunderstorms 46 8 N/A N/A ENE 13 20 29.68 1005 8 13 0.00 0.00
3:56 am 03:56 Cloudy with Nearby Thunderstorms 46 8 N/A N/A ENE 13 20 29.66 1005 7 11 0.00 0.00
4:05 am 04:05 Cloudy with Nearby Thunderstorms 46 8 N/A N/A ENE 10 17 29.69 1005 6 10 0.00 0.00
4:34 am 04:34 Cloudy with Strong Thunderstorms 46 8 N/A N/A NNE 10 17 29.73 1007 5 8 0.00 0.00
4:56 am 04:56 Cloudy with Nearby Thunderstorms 46 8 N/A N/A NE 9 15 29.69 1005 5 8 0.00 0.00
5:03 am 05:03 Cloudy with Rain 46 8 N/A N/A ENE 10 17 29.70 1006 6 10 0.00 0.00
5:12 am 05:12 Cloudy with Heavy Rain 46 8 N/A N/A NE 6 9 29.72 1006 5 8 0.00 0.00
5:21 am 05:21 Cloudy with Heavy Rain 46 8 N/A N/A Calm 29.73 1007 3 5 0.00 0.00
5:39 am 05:39 Cloudy with Rain 46 8 N/A N/A E 5 7 29.72 1006 8 13 0.00 0.00
5:56 am 05:56 Cloudy with Rain 46 8 N/A N/A NE 5 7 29.71 1006 6 10 0.00 0.00
6:56 am 06:56 Cloudy with Light Rain 48 9 N/A N/A S 7 11 29.70 1006 9 14 0.00 0.00
7:56 am 07:56 Cloudy with Light Rain 55 13 N/A N/A SSW 12 19 29.66 1004 10 16 0.00 0.00
8:56 am 08:56 Cloudy with Light Rain 57 14 N/A N/A SSW 14 22 29.65 1004 10 16 0.00 0.00
9:54 am 09:54 Cloudy with Light Rain 57 14 N/A N/A W 14 22 29.68 1005 10 16 0.00 0.00
9:56 am 09:56 Cloudy with Light Rain 57 14 N/A N/A W 13 20 29.68 1005 10 16 0.00 0.00
10:03 am 10:03 Cloudy with Light Rain 57 14 N/A N/A WSW 15 24 29.68 1005 10 16 0.00 0.00
10:29 am 10:29 Cloudy with Light Rain 48 9 N/A N/A WNW 16 26 29.72 1006 4 6 0.00 0.00
10:56 am 10:56 Cloudy with Light Rain 48 9 N/A N/A SSE 8 13 29.65 1004 10 16 0.00 0.00
11:12 am 11:12 Cloudy 50 10 N/A N/A W 9 15 29.67 1005 10 16 0.00 0.00
11:21 am 11:21 Cloudy 50 10 N/A N/A W 13 20 29.68 1005 10 16 0.00 0.00
11:40 am 11:40 Cloudy with Light Rain 52 11 N/A N/A W 24 39 29.68 1005 6 10 0.00 0.00
11:56 am 11:56 Cloudy with Light Rain 52 11 N/A N/A W 26 43 29.68 1005 5 8 0.00 0.00
12:09 pm 12:09 Cloudy with Haze 50 10 N/A N/A W 32 52 29.70 1006 5 8 0.00 0.00
12:56 pm 12:56 Cloudy with Light Rain 42 5.6 42 5.6 100 100 W 22 35 29.78 1009 10 16 0.00 0.00
1:40 pm 13:40 Cloudy 39 4 39 4 100 100 WNW 28 44 29.84 1010 10 16 0.00 0.00
1:56 pm 13:56 Cloudy 40 4.4 40 4.4 100 100 W 24 39 29.82 1010 10 16 0.00 0.00
2:06 pm 14:06 Cloudy 41 5 39 4 93 93 WNW 18 30 29.84 1011 10 16 0.00 0.00
2:56 pm 14:56 Cloudy 40 4.4 38 3.3 93 93 W 25 41 29.88 1012 10 16 0.00 0.00
3:56 pm 15:56 Cloudy with Light Rain 39 3.9 37 2.8 93 93 WNW 22 35 29.92 1013 10 16 0.00 0.00
4:56 pm 16:56 Cloudy 38 3.3 34 1.1 86 86 WNW 22 35 29.97 1015 10 16 0.00 0.00
5:56 pm 17:56 Cloudy 37 2.8 34 1.1 89 89 WNW 18 30 30.02 1017 10 16 0.00 0.00
6:56 pm 18:56 Cloudy 36 2.2 32 0 86 86 WNW 22 35 30.07 1018 10 16 0.00 0.00
7:11 pm 19:11 Cloudy 36 2 32 0 87 87 W 18 30 30.11 1019 10 16 0.00 0.00
7:29 pm 19:29 Cloudy 36 2 32 0 87 87 WNW 18 30 30.13 1020 10 16 0.00 0.00
7:46 pm 19:46 Cloudy 36 2 32 0 87 87 W 14 22 30.14 1020 10 16 0.00 0.00
7:56 pm 19:56 Cloudy 36 2.2 31 -0.6 82 82 W 14 22 30.11 1020 10 16 0.00 0.00
8:56 pm 20:56 Cloudy 35 1.7 30 -1.1 82 82 W 18 30 30.13 1020 10 16 0.00 0.00
9:56 pm 21:56 Cloudy 35 1.7 31 -0.6 85 85 WNW 12 19 30.16 1021 10 16 0.00 0.00
10:07 pm 22:07 Cloudy 36 2 30 -1 81 81 WNW 10 17 30.19 1022 10 16 0.00 0.00
10:29 pm 22:29 Cloudy 36 2 30 -1 81 81 NW 14 22 30.21 1023 10 16 0.00 0.00
10:51 pm 22:51 Cloudy 34 1 28 -2 81 81 NW 10 17 30.21 1023 10 16 0.00 0.00
10:56 pm 22:56 Cloudy 34 1.1 28 -2.2 79 79 NW 14 22 30.19 1022 10 16 0.00 0.00
11:56 pm 23:56 Cloudy 34 1.1 29 -1.7 82 82 WNW 8 13 30.19 1022 10 16 0.00 0.00

Powered by AerisWeather